When you browse on this site, cookies collect data to enhance your experience and personalize the content and advertising you see.
Visit our Privacy Policy to learn more. By continuing to use the site, you agree to this use of cookies and data.
  • In United Kingdom
  • List of Countries
  • For 7 days
  • Water Temperature
  • Satellite Maps
  • Weather Map
  • Weather Widgets
  • user-avatar
    Login

    Hourly Weather Leticia

    Today, 25 June, Tuesday

    Time Temperature Precipitation Wind Pressure Humidity
    00:00 +24°C° 0.1 mm 1 mps 751 mmHg 96%
    01:00 +22°C° 0.1 mm 0 mps 751 mmHg 97%
    02:00 +22°C° 0 mm 0 mps 751 mmHg 98%
    03:00 +24°C° 0 mm 1 mps 751 mmHg 98%
    04:00 +23°C° 0 mm 1 mps 751 mmHg 98%
    05:00 +22°C° 0 mm 0 mps 751 mmHg 97%
    06:00 +22°C° 0 mm 0 mps 751 mmHg 95%
    07:00 +23°C° 0 mm 0 mps 752 mmHg 93%
    08:00 +25°C° 0 mm 0 mps 752 mmHg 84%
    09:00 +29°C° 0 mm 1 mps 753 mmHg 75%
    10:00 +31°C° 0 mm 1 mps 753 mmHg 65%
    11:00 +31°C° 0.3 mm 1 mps 752 mmHg 65%
    12:00 +32°C° 0.3 mm 1 mps 751 mmHg 65%
    13:00 +32°C° 0.3 mm 1 mps 750 mmHg 65%
    14:00 +31°C° 1.1 mm 1 mps 750 mmHg 75%
    15:00 +30°C° 1.1 mm 1 mps 750 mmHg 85%
    16:00 +27°C° 1.1 mm 0 mps 749 mmHg 94%
    17:00 +26°C° 0.2 mm 0 mps 749 mmHg 95%
    18:00 +25°C° 0.2 mm 0 mps 750 mmHg 96%
    19:00 +24°C° 0.2 mm 0 mps 750 mmHg 97%
    20:00 +23°C° 0 mm 0 mps 751 mmHg 98%
    21:00 +23°C° 0 mm 0 mps 751 mmHg 98%
    22:00 +23°C° 0 mm 0 mps 752 mmHg 98%
    23:00 +23°C° 0 mm 0 mps 751 mmHg 98%

    Tomorrow, 26 June, Wednesday

    Time Temperature Precipitation Wind Pressure Humidity
    00:00 +23°C° 0 mm 0 mps 751 mmHg 98%
    01:00 +22°C° 0 mm 0 mps 751 mmHg 98%
    02:00 +22°C° 0 mm 0 mps 751 mmHg 98%
    03:00 +22°C° 0 mm 0 mps 751 mmHg 98%
    04:00 +22°C° 0 mm 0 mps 751 mmHg 98%
    05:00 +22°C° 0 mm 0 mps 751 mmHg 98%
    06:00 +23°C° 0 mm 0 mps 751 mmHg 97%
    07:00 +23°C° 0 mm 0 mps 752 mmHg 97%
    08:00 +24°C° 0.1 mm 0 mps 752 mmHg 92%
    09:00 +25°C° 0.1 mm 0 mps 752 mmHg 86%
    10:00 +26°C° 0.1 mm 0 mps 753 mmHg 81%
    11:00 +27°C° 0.9 mm 0 mps 752 mmHg 83%
    12:00 +27°C° 0.9 mm 0 mps 751 mmHg 86%
    13:00 +27°C° 0.9 mm 0 mps 750 mmHg 88%
    14:00 +27°C° 0.6 mm 0 mps 750 mmHg 86%
    15:00 +28°C° 0.6 mm 0 mps 749 mmHg 83%
    16:00 +28°C° 0.6 mm 0 mps 748 mmHg 81%
    17:00 +26°C° 0.2 mm 0 mps 749 mmHg 86%
    18:00 +25°C° 0.2 mm 0 mps 749 mmHg 90%
    19:00 +24°C° 0.2 mm 0 mps 750 mmHg 95%
    20:00 +23°C° 0.8 mm 0 mps 750 mmHg 95%
    21:00 +23°C° 0.8 mm 0 mps 751 mmHg 95%
    22:00 +23°C° 0.8 mm 0 mps 751 mmHg 96%
    23:00 +23°C° 0.6 mm 0 mps 751 mmHg 96%

    Day after tomorrow, 27 June, Thursday

    Time Temperature Precipitation Wind Pressure Humidity
    00:00 +23°C° 0.6 mm 0 mps 751 mmHg 97%
    01:00 +23°C° 0.6 mm 0 mps 751 mmHg 97%
    02:00 +22°C° 0.5 mm 0 mps 751 mmHg 98%
    03:00 +22°C° 0.5 mm 0 mps 750 mmHg 98%
    04:00 +22°C° 0.5 mm 0 mps 750 mmHg 99%
    05:00 +22°C° 1.5 mm 0 mps 751 mmHg 99%
    06:00 +23°C° 1.5 mm 0 mps 751 mmHg 99%
    07:00 +23°C° 1.5 mm 0 mps 752 mmHg 99%
    08:00 +23°C° 1.6 mm 0 mps 752 mmHg 99%
    09:00 +23°C° 1.6 mm 0 mps 753 mmHg 99%
    10:00 +23°C° 1.6 mm 0 mps 753 mmHg 98%
    11:00 +24°C° 0.9 mm 0 mps 753 mmHg 98%
    12:00 +24°C° 0.9 mm 0 mps 752 mmHg 97%
    13:00 +24°C° 0.9 mm 0 mps 752 mmHg 96%
    14:00 +24°C° 1 mm 0 mps 751 mmHg 97%
    15:00 +24°C° 1 mm 0 mps 750 mmHg 98%
    16:00 +23°C° 1 mm 0 mps 749 mmHg 98%
    17:00 +23°C° 0 mm 0 mps 750 mmHg 98%
    18:00 +22°C° 0 mm 0 mps 750 mmHg 99%
    19:00 +22°C° 0 mm 0 mps 750 mmHg 99%
    20:00 +22°C° 0 mm 0 mps 751 mmHg 99%
    21:00 +22°C° 0 mm 0 mps 751 mmHg 98%
    22:00 +22°C° 0 mm 0 mps 752 mmHg 98%
    23:00 +22°C° 0 mm 0 mps 752 mmHg 98%

    28 June, Friday

    Time Temperature Precipitation Wind Pressure Humidity
    00:00 +22°C° 0 mm 0 mps 751 mmHg 98%
    01:00 +22°C° 0 mm 0 mps 751 mmHg 98%
    02:00 +22°C° 0.6 mm 0 mps 751 mmHg 99%
    03:00 +22°C° 0.6 mm 0 mps 751 mmHg 99%
    04:00 +22°C° 0.6 mm 0 mps 750 mmHg 99%
    05:00 +22°C° 0.5 mm 0 mps 751 mmHg 99%
    06:00 +22°C° 0.5 mm 0 mps 751 mmHg 99%
    07:00 +22°C° 0.5 mm 0 mps 752 mmHg 99%
    08:00 +24°C° 0.1 mm 0 mps 752 mmHg 90%
    09:00 +26°C° 0.1 mm 0 mps 753 mmHg 81%
    10:00 +30°C° 0.1 mm 1 mps 753 mmHg 73%
    11:00 +28°C° 1.4 mm 0 mps 752 mmHg 76%
    12:00 +29°C° 1.4 mm 0 mps 751 mmHg 78%
    13:00 +29°C° 1.4 mm 0 mps 750 mmHg 81%
    14:00 +28°C° 1.9 mm 0 mps 750 mmHg 85%
    15:00 +28°C° 1.9 mm 0 mps 749 mmHg 89%
    16:00 +27°C° 1.9 mm 0 mps 749 mmHg 94%
    17:00 +26°C° 0.7 mm 0 mps 749 mmHg 94%
    18:00 +25°C° 0.7 mm 0 mps 750 mmHg 95%
    19:00 +24°C° 0.7 mm 0 mps 751 mmHg 96%
    20:00 +24°C° 0 mm 0 mps 751 mmHg 96%
    21:00 +23°C° 0 mm 0 mps 752 mmHg 96%
    22:00 +23°C° 0 mm 0 mps 752 mmHg 97%
    23:00 +23°C° 0.3 mm 0 mps 752 mmHg 97%

    29 June, Saturday

    Time Temperature Precipitation Wind Pressure Humidity
    00:00 +23°C° 0.3 mm 0 mps 752 mmHg 98%
    01:00 +22°C° 0.3 mm 0 mps 751 mmHg 98%
    02:00 +22°C° 0.8 mm 0 mps 751 mmHg 98%
    03:00 +22°C° 0.8 mm 0 mps 751 mmHg 99%
    04:00 +22°C° 0.8 mm 0 mps 751 mmHg 99%
    05:00 +22°C° 1.5 mm 0 mps 751 mmHg 99%
    06:00 +22°C° 1.5 mm 0 mps 752 mmHg 99%
    07:00 +23°C° 1.5 mm 0 mps 752 mmHg 99%
    08:00 +25°C° 0.1 mm 1 mps 753 mmHg 97%
    09:00 +26°C° 0.1 mm 1 mps 753 mmHg 95%
    10:00 +26°C° 0.1 mm 1 mps 753 mmHg 93%
    11:00 +27°C° 0.1 mm 1 mps 752 mmHg 87%
    12:00 +28°C° 0.1 mm 1 mps 752 mmHg 81%
    13:00 +29°C° 0.1 mm 1 mps 751 mmHg 75%
    14:00 +29°C° 0.2 mm 1 mps 750 mmHg 77%
    15:00 +29°C° 0.2 mm 1 mps 750 mmHg 79%
    16:00 +29°C° 0.2 mm 1 mps 749 mmHg 81%
    17:00 +26°C° 0.5 mm 0 mps 750 mmHg 86%
    18:00 +25°C° 0.5 mm 0 mps 750 mmHg 92%
    19:00 +23°C° 0.5 mm 0 mps 751 mmHg 97%
    20:00 +23°C° 0.4 mm 0 mps 751 mmHg 97%
    21:00 +23°C° 0.4 mm 0 mps 752 mmHg 98%
    22:00 +22°C° 0.4 mm 0 mps 752 mmHg 98%
    23:00 +22°C° 0.9 mm 0 mps 752 mmHg 98%

    30 June, Sunday

    Time Temperature Precipitation Wind Pressure Humidity
    00:00 +22°C° 0.9 mm 0 mps 752 mmHg 99%
    01:00 +22°C° 0.9 mm 0 mps 751 mmHg 99%
    02:00 +22°C° 0.2 mm 0 mps 751 mmHg 99%
    03:00 +22°C° 0.2 mm 0 mps 751 mmHg 99%
    04:00 +22°C° 0.2 mm 0 mps 751 mmHg 99%
    05:00 +22°C° 0 mm 0 mps 751 mmHg 99%
    06:00 +22°C° 0 mm 0 mps 752 mmHg 99%
    07:00 +23°C° 0 mm 0 mps 752 mmHg 98%
    08:00 +25°C° 0 mm 0 mps 753 mmHg 88%
    09:00 +29°C° 0 mm 1 mps 753 mmHg 78%
    10:00 +31°C° 0 mm 1 mps 753 mmHg 68%
    11:00 +31°C° 0.6 mm 1 mps 752 mmHg 72%
    12:00 +31°C° 0.6 mm 1 mps 751 mmHg 76%
    13:00 +31°C° 0.6 mm 1 mps 750 mmHg 81%
    14:00 +28°C° 1.9 mm 0 mps 750 mmHg 85%
    15:00 +28°C° 1.9 mm 0 mps 749 mmHg 89%
    16:00 +27°C° 1.9 mm 0 mps 749 mmHg 93%
    17:00 +26°C° 0.3 mm 0 mps 750 mmHg 94%
    18:00 +25°C° 0.3 mm 0 mps 750 mmHg 95%
    19:00 +23°C° 0.3 mm 0 mps 751 mmHg 96%
    20:00 +23°C° 0 mm 0 mps 751 mmHg 96%
    21:00 +23°C° 0 mm 0 mps 751 mmHg 96%
    22:00 +22°C° 0 mm 0 mps 752 mmHg 97%
    23:00 +22°C° 0 mm 0 mps 752 mmHg 97%
    Show more